Location: Newark
(41.0400°S, 62.7845°W)
Time: 16:44:35
(UTC+00:00)

X-37B - Visible Passes

Search period start: 30 September 2020 00:00
Search period end: 10 October 2020 00:00
Orbit: 386 x 387 km, 45.0° (Epoch: 18 September)

Date Brightness Start Highest point End Pass type
(mag) Time Alt. Az. Time Alt. Az. Time Alt. Az.
06 Oct 3.5 08:23:47 10° NNE 08:24:33 11° NE 08:25:19 10° NE visible
07 Oct 2.0 08:59:13 10° NW 09:02:11 34° NNE 09:05:10 10° E visible
08 Oct 2.7 08:02:35 16° N 08:03:45 20° NE 08:06:11 10° E visible
09 Oct 0.9 08:38:59 15° NW 08:41:33 61° NNE 08:44:46 10° ESE visible
